AirNav   Pilot Hours Calculator
 
 945 users online  

WY39 Star Valley Ranch Airport
Thayne, Wyoming, USA

GOING TO THAYNE?


FAA INFORMATION EFFECTIVE 23 MAY 2019

Location

FAA Identifier: WY39
Lat/Long: 42-58-09.7210N / 110-57-56.7540W
42-58.162017N / 110-57.945900W
42.9693669 / -110.9657650
(estimated)
Elevation: 6210 ft. / 1892.8 m (surveyed)
Variation: 15E (1985)
From city: 3 miles NE of THAYNE, WY
Time zone: UTC -6 (UTC -7 during Standard Time)
Zip code: 83127

Airport Operations

Airport use: CLOSED INDEFINITELY
Activation date: 09/1971
Control tower: no
ARTCC: SALT LAKE CITY CENTER
FSS: CASPER FLIGHT SERVICE STATION
Attendance: UNATNDD
Wind indicator: yes
Segmented circle: no

Airport Communications

WX AWOS-3 at 46U (13 nm N): 119.925 (307-654-2004)
WX AWOS-3P at AFO (16 nm S): 119.025 (307-885-2654)

Airport Services

Airframe service: NONE
Powerplant service: NONE

Runway Information

Runway 15/33

Dimensions: 5400 x 60 ft. / 1646 x 18 m
Surface: gravel
RUNWAY 15  RUNWAY 33
Traffic pattern: leftleft
Obstructions: plinepline
P-LINES BELOW NORMAL GLIDE SLOPE.

Airport Ownership and Management from official FAA records

Ownership: Privately-owned
Owner: STAR VALLEY RANCH ASSOCIATION
1800 CEDAR CREEK DRIVE
STAR VALLEY RANCH, WY 83127
Phone 307-883-2669
Manager: TALLIA BOOKER
1800 CEDAR CREEK DRIVE
STAR VALLEY RANCH, WY 83127
Phone 307-883-2669

Airport Operational Statistics

Aircraft based on the field: 2
Single engine airplanes: 2
    

Additional Remarks

ACFT OFTEN FUEL AT AFTON.
(ARPT STATUS) ARPT CLSD INDEFLY.

Instrument Procedures

There are no published instrument procedures at WY39.

Some nearby airports with instrument procedures:

KAFO - Afton Municipal Airport (16 nm S)
KJAC - Jackson Hole Airport (40 nm N)
KBPI - Miley Memorial Field Airport (44 nm SE)
1U7 - Bear Lake County Airport (46 nm S)
KDIJ - Driggs-Reed Memorial Airport (47 nm N)
 
Loc | Ops | Rwys | IFR | FBO | Links
Com | Nav | Svcs | Stats | Notes
Area around WY39 (Star Valley Ranch Airport)
 
Road maps at: MapQuest Bing Google
 
Aerial photo
WARNING: Photo may not be current or correct
Aerial photo of WY39 (Star Valley Ranch Airport)
Do you have a better or more recent aerial photo of Star Valley Ranch Airport that you would like to share? If so, please send us your photo.

 
Sectional chart

 
Airport distance calculator
Flying to Star Valley Ranch Airport? Find the distance to fly.

From to WY39

Sunrise and sunset
Times for 16-Jun-2019
 Local
(UTC-6)
 Zulu
(UTC)
Morning civil twilight05:1011:10
Sunrise05:4511:45
Sunset21:0403:04
Evening civil twilight21:3903:39

Current date and time
Zulu (UTC)  16-Jun-2019 15:36:32
Local (UTC-6)  16-Jun-2019 09:36:32
 
METAR
K46U 
13nm N 
161520Z 00000KT 10SM CLR 14/08 A3011 RMK A01 OBSERVE RT TRAFFIC RWY 13 WATERFOWL/ANIMALS ON OR IN THE VICINITY OF THE RUNWAY
KAFO 
16nm S 
161515Z AUTO 00000KT 10SM CLR 11/05 A3011 RMK AO2
TAF
KJAC 
39nm N 
161123Z 1612/1712 VRB05KT P6SM SKC FM161700 19007KT P6SM SCT080 FM162100 24012KT P6SM VCTS SCT070 BKN090CB FM170100 VRB04KT P6SM BKN120 AMD LTD TO CLD VIS AND WIND
KBPI 
45nm SE 
161123Z 1612/1712 VRB06KT P6SM FEW080 FM161700 24008KT P6SM FEW080 FM162000 28012G18KT P6SM FEW080 SCT110 FM170200 33010KT P6SM BKN120 FM170700 VRB04KT P6SM SCT150
KDIJ 
47nm N 
161137Z 1612/1712 VRB05KT P6SM FEW120 FM162200 25009KT P6SM VCTS BKN060CB FM170400 14007KT P6SM VCSH BKN090 AMD LTD TO CLD VIS AND WIND
NOTAMs
Click for the latest NOTAMs
NOTAMs are issued by the DoD/FAA and will open in a separate window not controlled by AirNav.

 

 
 

Would you like to see your business listed on this page?

 If your business provides an interesting product or service to pilots, flight crews, aircraft, or users of the Star Valley Ranch Airport, you should consider listing it here.  To start the listing process, click on the button below
 
Add a business
 

Other Pages about Star Valley Ranch Airport

Update a link
 
Copyright © AirNav, LLC. All rights reserved. Privacy Policy  Contact